Flag for Kazakhstan Weather past 2 weeks in Qyzylorda, Kazakhstan

Now
77 °F

Sunny.


Feels Like: 77 °F
Forecast: 54 / 84 °F
Wind: 6 mph from North

Location: Kzyl-Orda

Current Time: May 24, 2015 at 8:18:34 PM

Latest Report: May 24, 2015 at 7:30 PM


Visibility: 10 mi

Pressure: 30.07 "Hg

Humidity: 26%

Dew point: 39 °F

Location of QyzylordaLocation

Historic Weather in Qyzylorda — Graph

°F

Qyzylorda temperature yesterday

Maximum temperature yesterday: 72 °F (at 1:00 PM)
Minimum temperature yesterday: 48 °F (at 5:00 AM)
Average temperature yesterday: 60 °F

Past Weeks' High & Low Weather Summary

 TemperatureHumidityPressure
High86 °F (May 14, 3:30 PM)100% (May 16, 2:00 AM)30.09 "Hg (May 16, 2:00 AM)
Low43 °F (May 21, 6:00 AM)21% (May 10, 3:30 PM)29.62 "Hg (May 16, 6:00 AM)
Average66 °F55%29.93 "Hg
* Reported May 9 7:00 PM — May 24 7:30 PM, Qyzylorda, Weather by CustomWeather, © 2015

Note: Actual official high and low records may vary slightly from our data, if they occured in-between our weather recording intervals... More about our weather records

Advertising

Qyzylorda weather history for previous 24 hours

 ConditionsComfort  
Time TempWeatherWind HumidityBarometerVisibility
7:30 PM
Sun, May 24
77 °FSunny.6 mph26%30.07 "Hg10 mi
7:00 PM77 °FSunny.6 mph26%30.04 "Hg10 mi
6:30 PM77 °FSunny.8 mph26%30.04 "Hg10 mi
6:00 PM77 °FSunny.8 mph28%30.04 "Hg10 mi
5:30 PM79 °FSunny.8 mph28%30.04 "Hg10 mi
5:00 PM77 °FSunny.8 mph28%30.04 "Hg10 mi
4:30 PM75 °FSunny.8 mph31%30.04 "Hg10 mi
4:00 PM77 °FPassing clouds.6 mph34%30.04 "HgN/A
3:30 PM77 °FPassing clouds.3 mph30%30.04 "HgN/A
3:00 PM75 °FPassing clouds.6 mph34%30.04 "HgN/A
2:30 PM75 °FPassing clouds.6 mph31%30.04 "HgN/A
2:00 PM73 °FPassing clouds.6 mph38%30.04 "HgN/A
1:30 PM73 °FPassing clouds.8 mph38%30.04 "HgN/A
1:00 PM72 °FPassing clouds.10 mph44%30.04 "HgN/A
12:30 PM72 °FSunny.10 mph44%30.04 "Hg10 mi
12:00 PM70 °FSunny.13 mph53%30.04 "Hg10 mi
11:30 AM68 °FSunny.13 mph56%30.01 "Hg10 mi
11:00 AM64 °FSunny.13 mph64%30.01 "Hg10 mi
10:30 AM66 °FSunny.13 mph60%30.01 "Hg10 mi
10:00 AM63 °FPassing clouds.10 mph68%29.98 "HgN/A
9:30 AM61 °FSunny.10 mph72%29.98 "Hg10 mi
9:00 AM59 °FSunny.6 mph77%29.98 "Hg10 mi
8:30 AM57 °FSunny.8 mph77%29.95 "Hg10 mi
8:00 AM54 °FSunny.6 mph88%29.95 "Hg10 mi
7:30 AM52 °FSunny.6 mph88%29.95 "Hg10 mi
7:00 AM50 °FClear.6 mph94%29.92 "Hg10 mi
6:30 AM48 °FClear.6 mph94%29.92 "Hg10 mi
6:00 AM48 °FClear.6 mph94%29.92 "Hg10 mi
5:30 AM48 °FClear.6 mph94%29.92 "Hg10 mi
5:00 AM48 °FClear.6 mph100%29.89 "Hg10 mi
4:00 AM50 °FOvercast.3 mph88%29.89 "HgN/A
3:00 AM48 °FOvercast.3 mph87%29.89 "HgN/A
2:00 AM50 °FOvercast.1 mph88%29.89 "HgN/A
1:00 AM52 °FOvercast.3 mph82%29.89 "HgN/A
12:00 AM52 °FOvercast.6 mph82%29.89 "HgN/A
11:00 PM
Sat, May 23
55 °FThunderstorms. Overcast.6 mph72%29.89 "Hg6 mi
10:00 PM55 °FPartly sunny.8 mph67%29.86 "HgN/A
9:00 PM57 °FPartly sunny.15 mph63%29.86 "HgN/A
8:00 PM64 °FPartly sunny.17 mph60%29.83 "HgN/A
Weather by CustomWeather, © 2015

See weather overviewHow to use our weather pages